User: anonymous   Login
Location: Unspecified
(0.0000°N, 0.0000°E)
Time: 00:55:47
(UTC+00:00)
Language:

NOAA 19 - Orbit

View from above orbital plane
View from above orbital plane
View from above satellite
View from above satellite

Ground track
Ground track

The orbit data is extracted from the following two-line orbital elements,

1 33591U 09005A   18352.55042530  .00000048  00000-0  51564-4 0  9995
2 33591  99.1634 334.4312 0014108 165.7131 194.4441 14.12324000508202
Epoch (UTC): 18 December 2018 13:12:36
Eccentricity: 0.0014108
inclination: 99.1634°
perigee height: 841 km
apogee height: 861 km
right ascension of ascending node: 334.4312°
argument of perigee: 165.7131°
revolutions per day: 14.12324000
mean anomaly at epoch: 194.4441°
orbit number at epoch: 50820

The dashed part of the orbit path shows where the satellite is in the earth's shadow,  

DLR